User: anonymous   Login
Location: Iesi
(43.5167°N, 13.2333°E)
Time: 13:13:59
(UTC+00:00)
Language:

CARTOSAT-1 - Orbit

View from above orbital plane
View from above orbital plane
View from above satellite
View from above satellite

Ground track
Ground track

The orbit data is extracted from the following two-line orbital elements,

1 28649U 05017A   20294.80955801 +.00000048 +00000-0 +12061-4 0  9991
2 28649 097.8004 000.9489 0002487 064.7599 295.3873 14.83717269837104
Epoch (UTC): 20 October 2020 19:25:45
Eccentricity: 0.0002487
inclination: 97.8004°
perigee height: 616 km
apogee height: 619 km
right ascension of ascending node: 0.9489°
argument of perigee: 64.7599°
revolutions per day: 14.83717269
mean anomaly at epoch: 295.3873°
orbit number at epoch: 83710

The dashed part of the orbit path shows where the satellite is in the earth's shadow,  

DLR